Overview Statistics Trail Chart Weather Telemetry Raw packets
 

This is the latest recevied weather packets stored in our database for station/object IW1QLH-13. If no packets are shown the sender has not sent any weather packets the latest 10 day(s).

<< 10 11 12 13 14 15 16 >>
Time Temp. Humidity Pressure Rain* Wind** Luminosity Snow
1788458260 25.56° C 11% - - - - -
1788457647 25.56° C 11% - - - 14 W/m² -
1788457035 26.67° C 11% - - - 14 W/m² -
1788456421 26.67° C 11% - - - 14 W/m² -
1788455807 26.67° C 11% - - - 28 W/m² -
1788455195 26.67° C 11% - - - 28 W/m² -
1788454581 26.67° C 11% - - - 42 W/m² -
1788453970 26.67° C 11% - - - 71 W/m² -
1788453359 26.67° C 11% - - - 143 W/m² -
1788452747 26.67° C 11% - - - 100 W/m² -
1788452136 27.78° C 11% - - - 171 W/m² -
1788451524 26.67° C 11% - - - 85 W/m² -
1788450910 27.78° C 11% - - - 157 W/m² -
1788450298 27.78° C 11% - - - 514 W/m² -
1788449686 27.78° C 11% - - - 514 W/m² -
1788449076 27.78° C 11% - - - 286 W/m² -
1788448464 30° C 11% - - - 572 W/m² -
1788447853 30.56° C 11% - - - 629 W/m² -
1788447242 30.56° C 11% - - - 643 W/m² -
1788446630 30° C 11% - - - 672 W/m² -
1788446019 30° C 11% - - - 715 W/m² -
1788445408 30° C 11% - - - 729 W/m² -
1788444796 30° C 11% - - - 772 W/m² -
1788444184 30° C 11% - - - 800 W/m² -
1788443573 28.89° C 11% - - - 829 W/m² -

* Rain since midnight (hover to see other rain measurements)
** Current wind speed in m/s (hover to see current wind gust speed)